{"data":{"norad_id":53453,"epoch":"2026-09-20T22:03:55.989792Z","epoch_age_seconds":107470,"freshness":"FRESH","line1":"1 53453U 22098K   26263.91939803  .00792100  36082-3  77188-3 0  9997","line2":"2 53453  97.5785  45.7870 0008089 265.7289  94.3071 16.11548590229926","mean_motion":16.1154859,"eccentricity":0.0008089,"inclination_deg":97.5785,"raan_deg":45.787,"arg_perigee_deg":265.7289,"mean_anomaly_deg":94.3071,"bstar":0.00077188,"rev_number":22992,"period_min":89.355046998614,"perigee_km":237.24299097702,"apogee_km":247.95401687527,"semimajor_km":6620.7355039261,"source":"CELESTRAK","updated_at":"2026-09-21T09:00:09.038501Z"}}